Content
SEND FEEDBACK

Daily
Averages
Monthly
Summary
United States of America

WANETTE, OKLAHOMA


Home > North America > United States > Oklahoma
Elevation: 1020 feet     Latitude: 35 02N     Longitude: 097 02W

WEATHER
 
SELECT A DAY
Number of Records: 335,338;   Date Range: 3/30/01 - 12/17/14
 
SHARE

PRINT THIS DATA

[ ← Previous Day ]
WEATHER ALMANAC - FEBRUARY 13, 2013
[ Next Day → ]
[ °C ]   °F
Weather ElementAverageHighLow
Temperature43.7 °F59 °F (3:55 pm)35.6 °F (12:35 am)
Dewpoint36.1 °F42.8 °F (11:35 am)32 °F (7:35 pm)
Humidity78.2 %100 % (12:35 am)41 % (4:55 pm)
Barometer30.04 in30.09 in (8:15 am)29.99 in (3:15 pm)
Wind Speed6.1 mph10.4 mph (4:55 am)
Wind Gust16.1 mph (3:55 pm)
Weather ElementAverage
Visibility7.8 mi
Wind DirectionWSW (236.9 °)

Weather ElementTotal
Precipitation0.02 in
Heating Degree Days17.7 (Base 65)
Averaged from 70 records on February 13, 2013
WEATHER CONDITIONS BREAKOUT
WIND DIRECTION BREAKOUT
WEATHER BY HOUR - FEBRUARY 13, 2013
[ °C ]   °F
Local TimeTemperatureDewpointHumidityBarometerVisibilityWind DirectionWind SpeedGust SpeedPrecipitationEventsConditions
12:35 AM35.6 °F35.6 °F100 %30.05 in7.0 miNNW (330°)6.9 mphOvercast
12:55 AM35.6 °F35.6 °F100 %30.06 in7.0 miNW (320°)6.9 mphOvercast
1:15 AM35.6 °F35.6 °F100 %30.05 in7.0 miNW (320°)6.9 mphOvercast
1:35 AM35.6 °F35.6 °F100 %30.06 in7.0 miNW (320°)6.9 mphOvercast
1:55 AM35.6 °F35.6 °F100 %30.06 in5.0 miNW (310°)6.9 mphOvercast
2:15 AM35.6 °F35.6 °F100 %30.06 in5.0 miWNW (290°)4.6 mphOvercast
2:35 AM37.4 °F37.4 °F100 %30.06 in5.0 miWNW (290°)5.8 mphOvercast
2:55 AM35.6 °F35.6 °F100 %30.06 in5.0 miWNW (290°)5.8 mphOvercast
3:15 AM35.6 °F35.6 °F100 %30.06 in5.0 miWNW (300°)6.9 mphOvercast
3:35 AM37.4 °F37.4 °F100 %30.06 in5.0 miWNW (290°)3.5 mph0.01 inOvercast
3:55 AM37.4 °F37.4 °F100 %30.06 in5.0 miWest (270°)5.8 mph0.01 inOvercast
4:15 AM37.4 °F37.4 °F100 %30.06 in5.0 miWest (280°)8.1 mphOvercast
4:35 AM37.4 °F37.4 °F100 %30.05 in5.0 miWNW (290°)5.8 mphOvercast
4:55 AM37.4 °F37.4 °F100 %30.05 in4.0 miWNW (290°)10.4 mphOvercast
5:15 AM35.6 °F35.6 °F100 %30.06 in2.5 miWest (270°)10.4 mphOvercast
5:35 AM35.6 °F35.6 °F100 %30.06 in3.0 miWest (270°)8.1 mphOvercast
5:55 AM35.6 °F35.6 °F100 %30.06 in5.0 miWest (280°)5.8 mphOvercast
6:15 AM35.6 °F35.6 °F100 %30.07 in3.0 miWest (270°)4.6 mphOvercast
6:35 AM35.6 °F35.6 °F100 %30.07 in2.0 miWest (270°)6.9 mphOvercast
6:55 AM35.6 °F35.6 °F100 %30.07 in7.0 miWSW (250°)4.6 mphOvercast
7:15 AM35.6 °F35.6 °F100 %30.07 in3.0 miWest (260°)3.5 mphOvercast
7:35 AM35.6 °F35.6 °F100 %30.08 in1.8 miWSW (240°)6.9 mphOvercast
7:55 AM35.6 °F35.6 °F100 %30.08 in4.0 miSW (230°)5.8 mphOvercast
8:15 AM35.6 °F35.6 °F100 %30.09 in3.0 miSW (220°)4.6 mphOvercast
8:35 AM35.6 °F35.6 °F100 %30.09 in4.0 miWSW (250°)5.8 mphOvercast
8:55 AM35.6 °F35.6 °F100 %30.09 in5.0 miWSW (240°)5.8 mphOvercast
9:15 AM35.6 °F35.6 °F100 %30.09 in5.0 miSW (220°)8.1 mphOvercast
9:35 AM37.4 °F37.4 °F100 %30.09 in7.0 miSW (230°)6.9 mphOvercast
9:55 AM37.4 °F37.4 °F100 %30.08 in7.0 miSW (230°)9.2 mphOvercast
10:15 AM41.0 °F41.0 °F100 %30.08 in7.0 miWSW (240°)8.1 mphOvercast
10:35 AM41.0 °F41.0 °F100 %30.09 in10.0 miSW (230°)8.1 mphScattered Clouds
10:55 AM42.8 °F41.0 °F93 %30.09 in10.0 miWSW (250°)6.9 mphScattered Clouds
11:15 AM42.8 °F41.0 °F93 %30.09 in10.0 miWSW (240°)6.9 mphScattered Clouds
11:35 AM44.6 °F42.8 °F93 %30.09 in10.0 miWest (260°)8.1 mphClear
11:55 AM46.4 °F42.8 °F87 %30.08 in10.0 miWSW (240°)6.9 mphClear
12:15 PM48.2 °F42.8 °F82 %30.07 in10.0 miWSW (250°)8.1 mphClear
12:55 PM51.8 °F42.8 °F71 %30.05 in10.0 miWest (260°)10.4 mphClear
1:15 PM53.6 °F42.8 °F67 %30.03 in10.0 miWSW (250°)10.4 mphClear
1:35 PM53.6 °F41.0 °F62 %30.02 in10.0 miWSW (250°)8.1 mphClear
1:55 PM55.4 °F41.0 °F58 %30.02 in10.0 miWSW (240°)8.1 mphClear
2:15 PM55.4 °F41.0 °F58 %30.01 in10.0 miWSW (240°)9.2 mphClear
2:35 PM55.4 °F37.4 °F51 %30.00 in10.0 miSW (230°)8.1 mphClear
2:55 PM55.4 °F37.4 °F51 %30.00 in10.0 miWSW (250°)8.1 mphClear
3:15 PM57.2 °F35.6 °F44 %29.99 in10.0 miWest (260°)6.9 mphClear
3:35 PM57.2 °F37.4 °F48 %29.99 in10.0 miSW (230°)8.1 mphClear
3:55 PM59.0 °F37.4 °F45 %29.99 in10.0 miWSW (250°)9.2 mph16.1 mphClear
4:15 PM59.0 °F37.4 °F45 %29.99 in10.0 miWSW (250°)8.1 mphClear
4:35 PM57.2 °F35.6 °F44 %29.99 in10.0 miWest (270°)8.1 mphClear
4:55 PM57.2 °F33.8 °F41 %29.99 in10.0 miWest (270°)8.1 mphClear
5:15 PM55.4 °F33.8 °F44 %29.99 in10.0 miWest (270°)10.4 mphClear
5:35 PM55.4 °F33.8 °F44 %29.99 in10.0 miWest (270°)6.9 mphClear
5:55 PM53.6 °F33.8 °F47 %29.99 in10.0 miWest (260°)5.8 mphClear
6:15 PM51.8 °F33.8 °F50 %29.99 in10.0 miWest (270°)3.5 mphClear
6:35 PM51.8 °F33.8 °F50 %29.99 in10.0 miWest (270°)3.5 mphClear
6:55 PM48.2 °F33.8 °F58 %29.99 in10.0 miCalmClear
7:15 PM48.2 °F35.6 °F62 %29.99 in10.0 miWSW (250°)4.6 mphClear
7:35 PM48.2 °F32.0 °F54 %29.99 in10.0 miSW (230°)3.5 mphClear
7:55 PM46.4 °F32.0 °F57 %29.99 in10.0 miSW (230°)4.6 mphClear
8:15 PM44.6 °F32.0 °F61 %30.00 in10.0 miSW (230°)4.6 mphClear
8:35 PM44.6 °F32.0 °F61 %30.00 in10.0 miWSW (240°)5.8 mphClear
8:55 PM44.6 °F32.0 °F61 %30.00 in10.0 miWSW (250°)3.5 mphClear
9:15 PM44.6 °F32.0 °F61 %30.00 in10.0 miWSW (240°)3.5 mphClear
9:35 PM42.8 °F32.0 °F66 %30.01 in10.0 miWSW (250°)3.5 mphClear
9:55 PM42.8 °F32.0 °F66 %30.01 in10.0 miCalmClear
10:15 PM42.8 °F32.0 °F66 %30.02 in10.0 miCalmClear
10:35 PM42.8 °F32.0 °F66 %30.02 in10.0 miCalmClear
10:55 PM42.8 °F32.0 °F66 %30.02 in10.0 miCalmClear
11:15 PM42.8 °F32.0 °F66 %30.02 in10.0 miCalmClear
11:35 PM42.8 °F32.0 °F66 %30.02 in10.0 miSW (220°)3.5 mphClear
11:55 PM41.0 °F32.0 °F70 %30.02 in10.0 miSW (220°)5.8 mphClear
Hourly data recorded from KSNL, located miles away from Wanette, Oklahoma







STORIES FROM OUR PARTNERS